18:17
Airports
History
Links
Donate
Help keep this website running!
PayPal
Bitcoin
This page is community maintained. The information is intended for PC simulator navigation or reference.
Always use approved charts for navigation.
SNAF
Fazenda Agua Comprida
Fazenda Agua Comprida (SNAF)
Água Comprida, Minas Gerais, Brazil (38110)
4
Lat/Lng:19° 56' 49" S / 48° 2' 1" W
-19.946944 / -48.033611
Elevation:2211'ft / 674mMSL
ID / ICAO:SNAF
Runways:1
Longest:(10-28) 643.7m / 2,112ft Grass
Distance To
Airport ID:
Nearby WeatherUpdated 08-18-17 17:00 GMT
Nearby weather at SBUR, Uberaba located 13.3 nautical miles from SNAF
Altimeter: 30.06
Visibility: 5.0 statute miles
Wind: 12 knots (170°)
Temp: 23°c 73°f
Humidity: 56.9%

METAR: SBUR 181700Z 17012KT 8000 FEW025 BKN100 23/14 Q1018

(Powered by phpweather)
Runway 10 / 28
Dimensions:643.7 x 28m 2112' x 92'ft
Surface:Grass
Runway 10 [A]Runway 28 [B]
Heading:078°TH 258°TH
Lat:
Lng:
19° 56' 50.99"S
48° 2' 11.84"W
19° 56' 47.01"S
48° 1' 50.16"W
User Notes and Comments
Google Map
Nearby Airports
(C) Uberaba 13.3 NM
SBUR (WX) NNE 19°
4 Fazenda Mata Velha 14.1 NM
SIMV ENE 57°
(C) Volta Grande 14.3 NM
SNVG WSW 245°
4 Usina Delta I 16.6 NM
SNUS E 88°
(U) Junqueira 17.7 NM
SDWK ESE 102°
4 Vale dos Dinossauros 18.4 NM
SSFH NE 51°
4 Fazenda Boa Fe 23.5 NM
SNAW ENE 78°
VFR Chart
Flight Planning at SkyVector.com